Dewpoint
71 71 71 66 58 56 52 53 57 53 54 57 57 56 58 59 55 54 66 68 69 69 71 72 72 72 73 74 75 74 74 74 75 75 73 73 73 73 73 72 72 71 71 71 71 71 71 71 71
72 71 68 61 54 50 50 53 54 55 56 57 57 57 58 57 62 64 66 68 69 70 71 72 72 73 73 74 74 74 73 73 74 74 73 73 73 73 72 72 71 71 71 71 71 71 71 71 71
70 67 60 58 54 49 48 52 54 56 58 57 57 58 59 60 63 65 68 69 70 70 71 72 73 73 73 74 74 74 73 73 73 73 72 72 72 72 71 71 71 71 71 71 71 71 71 71 71
68 65 65 58 51 52 52 56 56 57 57 57 58 58 62 64 64 66 69 69 69 70 71 72 72 72 73 73 73 72 72 72 73 73 72 72 72 71 71 71 71 71 72 72 71 71 71 71 71
68 63 56 55 52 50 55 58 58 56 56 58 59 58 60 64 66 68 68 68 69 70 71 72 73 73 73 73 72 72 72 72 73 73 72 72 72 71 70 70 70 71 71 72 71 71 71 71 71
61 61 52 49 48 50 56 58 56 56 57 59 59 59 61 65 66 67 67 68 70 71 72 73 73 73 73 72 72 72 72 72 73 73 72 72 72 71 70 70 70 70 71 71 71 70 71 70 70
54 52 49 50 46 49 55 57 56 56 57 58 59 58 62 64 66 65 67 69 70 72 72 73 73 72 72 73 72 72 72 72 73 73 73 72 72 71 70 70 70 71 71 71 71 70 70 70 69
56 52 50 49 44 48 54 56 58 57 57 60 60 58 60 63 64 65 67 68 69 71 72 72 73 73 74 74 73 73 72 72 72 73 72 72 72 71 71 70 71 71 70 70 70 71 71 70 70
59 48 43 43 43 49 53 55 57 58 59 58 60 60 62 63 63 64 65 66 68 69 71 72 72 73 74 73 73 73 72 72 72 72 72 73 72 71 72 71 71 72 70 70 70 71 70 70 70
52 48 45 43 44 48 49 54 55 57 58 59 60 61 62 62 62 62 63 64 67 68 70 72 72 73 73 72 72 73 72 73 72 72 72 72 71 71 72 72 72 71 71 71 71 70 71 70 70
53 47 46 45 45 48 50 53 55 57 57 59 60 61 61 62 62 63 63 66 66 68 69 70 71 72 72 71 72 72 72 71 70 70 70 70 71 70 71 70 71 71 71 69 70 71 69 69 69
49 49 45 45 45 44 48 54 54 55 54 58 62 62 62 62 62 63 63 66 66 67 69 70 71 71 71 70 72 72 71 70 69 68 69 70 70 68 68 69 70 69 70 70 70 70 69 69 68
40 38 44 44 41 42 42 44 53 53 56 59 62 62 62 62 62 63 64 65 66 67 68 69 70 70 70 70 70 70 70 69 69 68 69 70 70 68 69 69 70 70 69 69 68 69 69 68 69
30 31 32 36 40 40 38 41 46 53 56 59 61 62 62 62 62 62 63 64 64 66 66 69 69 70 70 70 70 69 69 69 68 69 69 70 70 69 69 69 69 70 70 70 70 69 68 69 69
30 27 27 25 29 40 41 44 50 55 55 56 60 61 62 62 62 61 63 63 63 65 66 67 69 70 70 69 68 68 68 69 69 69 70 70 70 69 70 70 68 70 70 71 70 68 68 68 67
23 23 22 23 41 42 38 41 53 55 54 54 57 61 61 61 61 61 62 62 62 65 65 67 67 69 69 69 68 71 69 67 68 70 70 70 70 70 70 70 70 69 69 68 68 68 67 63 59
22 21 20 20 35 42 41 40 44 55 55 55 54 55 58 57 59 61 61 62 62 64 65 67 66 68 70 69 70 69 68 69 68 69 71 70 71 71 69 70 70 71 70 69 69 67 66 60 58
21 20 18 18 26 41 41 40 43 54 55 55 55 55 55 55 56 58 61 61 61 64 67 67 66 68 70 69 71 69 68 69 70 70 70 70 71 72 70 70 70 70 69 69 67 66 66 61 61
20 20 18 19 22 38 39 39 40 52 53 54 55 55 55 55 56 57 62 62 62 64 67 67 67 68 69 70 70 69 67 68 70 70 69 69 71 71 70 70 70 70 68 68 66 63 59 57 62
16 16 18 19 20 37 40 39 38 47 49 52 52 53 54 55 55 56 59 61 63 66 67 67 67 67 67 69 69 69 69 69 69 70 70 69 70 71 70 69 70 70 69 68 65 60 59 61 63
15 13 15 16 19 44 41 39 41 41 41 46 51 52 53 53 54 55 56 60 61 65 66 66 68 68 68 69 71 70 70 70 70 70 71 72 71 71 71 69 70 70 69 66 62 61 59 58 62
16 15 15 16 18 21 39 31 39 41 40 41 46 49 51 52 53 54 55 57 60 64 66 66 69 69 69 70 70 69 68 68 68 68 70 71 72 72 71 70 70 68 68 64 61 63 63 58 58
17 18 18 18 18 19 23 33 35 41 41 40 43 47 49 51 52 53 55 56 59 62 65 65 68 71 70 70 69 69 68 67 68 68 69 70 72 71 71 71 70 66 66 64 63 62 63 62 60
17 13 12 18 19 17 20 28 34 37 39 39 42 44 47 49 51 52 55 55 57 61 64 65 66 70 71 70 70 69 68 67 67 67 68 71 71 71 71 71 70 66 65 65 63 61 62 63 63
14 9 6 7 12 15 19 31 32 37 41 39 41 44 44 48 49 50 53 54 56 59 63 66 67 67 70 70 69 69 69 68 67 67 69 70 70 69 71 71 69 65 63 65 63 63 62 62 62
13 8 5 5 10 14 18 23 28 35 41 42 42 44 44 44 48 50 52 55 55 58 63 66 67 66 69 69 70 70 69 69 69 69 69 70 69 67 70 70 68 66 63 65 64 63 63 62 61
13 7 6 5 13 10 15 20 25 32 35 42 43 44 44 43 44 47 51 54 56 59 64 66 67 67 69 69 69 70 71 70 69 69 69 69 68 67 69 69 67 65 63 65 65 63 63 63 62
14 12 5 4 1 3 7 15 17 21 30 36 40 43 44 44 44 45 47 53 56 58 64 66 68 67 69 70 70 69 70 71 70 70 70 68 67 67 68 69 67 65 63 66 65 64 63 63 64
17 13 8 5 3 1 5 6 14 17 24 30 41 43 44 46 46 46 46 52 55 57 63 66 68 67 69 70 70 70 71 70 71 72 71 69 67 67 67 69 67 65 64 63 66 64 64 62 62
18 15 10 6 5 5 3 4 16 17 22 28 37 42 43 44 44 48 47 49 54 58 62 66 69 68 69 71 71 71 71 71 70 70 72 70 68 67 67 68 68 66 65 64 64 64 63 63 62
Wind_Speed
16 14 6 2 4 2 2 6 3 7 3 2 11 9 13 15 1 7 12 12 16 13 15 18 19 20 21 21 20 19 19 19 18 18 17 17 17 15 14 12 11 10 10 10 9 8 8 7 7
14 11 2 1 4 1 2 2 1 1 10 16 17 12 13 8 9 16 13 17 16 15 13 14 18 21 22 21 19 18 19 18 17 17 15 15 14 13 13 11 10 10 10 8 8 7 6 4 4
14 8 5 5 5 5 5 4 16 14 17 5 8 16 6 8 18 17 19 20 18 15 13 16 19 20 21 20 19 17 17 17 16 15 14 13 13 12 11 10 9 8 8 7 6 4 3 3 4
8 7 3 4 11 7 9 14 19 14 8 12 18 15 8 9 14 14 25 23 19 17 14 18 20 20 20 19 18 17 16 15 14 13 12 11 11 11 10 9 8 7 7 6 4 3 1 2 4
5 6 5 3 7 4 17 24 21 16 9 21 14 13 9 9 19 28 24 22 21 18 14 17 19 19 19 18 18 16 15 13 12 12 11 10 9 8 8 7 7 5 5 4 2 2 2 3 4
4 3 2 2 7 11 19 26 24 19 21 25 22 17 8 20 26 24 23 22 21 20 15 16 19 18 18 18 17 15 14 12 12 11 10 9 8 6 5 4 4 3 2 3 2 2 2 3 6
6 4 2 4 9 18 22 24 27 24 25 11 18 16 14 20 21 25 23 22 20 19 16 15 16 18 18 17 17 15 13 12 11 11 9 8 7 5 2 2 1 1 1 2 3 1 2 3 5
3 3 3 8 11 11 22 17 25 35 17 23 19 12 24 26 25 25 23 20 21 18 15 15 14 13 14 14 17 16 14 13 12 11 9 7 7 6 5 4 4 3 2 1 2 1 2 2 5
5 4 4 2 3 17 27 23 20 14 29 15 6 20 32 30 25 25 23 20 18 17 17 15 15 14 13 13 14 15 15 14 13 12 11 9 5 6 6 6 7 6 3 2 1 3 2 2 5
6 5 6 5 6 28 30 30 25 15 29 9 25 26 29 28 26 26 25 24 22 20 19 19 16 16 16 13 12 14 13 13 13 12 11 9 7 9 8 7 8 7 4 3 3 3 4 7 3
9 19 14 25 9 20 29 31 23 34 24 30 36 34 33 29 27 26 27 27 25 24 20 20 19 18 17 15 14 13 14 14 14 13 13 9 9 4 6 4 4 6 5 3 3 5 3 5 2
15 25 17 28 26 16 22 31 23 35 19 33 40 41 37 32 28 27 27 27 24 24 23 22 22 21 19 14 16 16 14 14 15 15 11 10 9 7 8 8 6 5 7 6 6 3 3 2 2
27 21 23 29 20 13 20 22 34 21 32 30 32 35 35 33 31 26 27 27 26 26 24 24 22 21 22 19 15 13 15 14 14 13 11 12 10 9 8 6 7 6 4 6 4 4 2 1 2
12 17 19 19 29 18 18 12 12 23 31 33 36 36 33 32 31 25 22 28 27 28 28 27 24 22 21 18 17 17 13 14 16 14 14 16 12 14 8 6 5 4 5 6 7 4 1 2 4
15 17 23 19 18 15 18 12 22 33 35 35 36 35 34 33 29 28 28 29 27 28 29 29 26 22 22 19 19 16 14 14 16 16 15 15 14 12 10 6 2 0 4 6 4 3 4 6 4
10 6 11 5 15 13 18 20 28 36 35 34 35 35 32 32 31 29 28 29 26 25 27 26 23 24 21 18 19 14 10 11 15 16 15 16 14 11 8 7 4 4 6 6 2 2 3 3 5
1 15 16 21 21 17 10 11 22 32 34 33 32 31 34 32 29 30 32 30 27 28 27 26 24 24 21 18 18 14 11 11 10 10 15 16 15 14 10 7 5 5 7 5 2 1 2 1 3
16 8 11 14 2 23 15 22 28 35 33 35 33 30 29 29 28 25 32 32 27 27 28 28 24 24 21 18 16 13 10 9 7 12 16 18 17 14 11 7 7 9 8 5 3 2 0 0 3
13 15 19 17 9 18 23 26 32 40 34 34 32 32 31 33 30 21 31 31 24 27 28 28 26 24 21 17 17 14 15 11 9 14 14 17 16 16 13 9 8 9 8 8 5 3 1 1 3
21 24 30 17 15 8 18 25 28 38 40 39 35 33 34 31 29 26 29 34 30 31 30 30 28 25 23 19 16 9 15 10 8 11 14 16 16 17 14 13 12 9 7 7 7 4 3 1 1
25 27 27 20 16 2 12 6 13 18 13 25 32 36 34 36 34 32 30 31 33 31 32 31 30 29 26 20 15 8 7 4 7 8 10 14 17 18 14 14 11 9 10 12 10 8 6 3 0
25 25 24 18 11 17 13 12 20 26 19 27 33 32 34 35 34 33 35 32 34 34 32 33 29 31 27 24 22 23 19 18 15 13 11 14 13 17 17 15 12 11 13 14 11 8 6 5 5
23 18 21 21 20 15 21 11 13 19 28 24 28 35 34 35 35 34 37 38 35 33 32 32 31 28 28 28 26 25 21 19 15 14 12 16 16 17 17 15 14 12 14 14 12 10 8 5 5
23 17 21 18 20 27 26 24 19 21 26 28 27 33 37 35 36 36 38 36 34 31 32 30 31 29 28 29 28 29 25 23 19 16 13 15 15 18 18 16 17 15 15 15 14 11 11 9 6
23 21 20 19 23 24 20 20 21 30 28 37 39 34 37 37 37 36 34 34 33 32 32 30 31 30 28 30 28 28 26 24 22 20 18 17 17 15 19 18 18 18 17 17 15 14 11 10 8
22 25 22 19 16 14 17 16 27 28 29 39 41 35 34 35 37 39 39 39 37 34 34 33 33 32 29 29 29 26 24 21 19 19 17 18 19 21 18 20 20 20 19 19 16 14 11 10 9
22 21 26 24 8 14 10 9 18 23 25 32 37 27 35 39 39 42 39 39 38 34 37 37 35 34 32 32 28 25 23 23 21 19 18 18 17 16 20 20 21 20 20 19 17 14 12 10 10
23 15 15 9 32 32 15 14 25 18 24 24 34 39 39 42 45 41 38 39 37 37 36 36 37 39 36 33 30 27 27 25 20 19 22 20 19 18 19 20 21 20 19 19 18 16 13 15 14
21 27 12 16 20 25 22 33 15 26 17 16 31 41 42 42 43 37 37 37 39 36 33 34 33 35 33 32 30 28 25 24 23 23 21 22 21 21 21 22 21 21 21 20 20 20 19 16 17
32 25 23 23 20 19 33 48 10 19 17 23 26 33 38 39 34 34 34 33 32 35 33 35 33 34 34 32 31 29 26 25 26 27 22 20 24 22 23 22 23 22 22 21 22 23 19 22 21
Wind_Direction
156 159 159 136 300 103 224 207 291 138 110 9 73 116 107 42 114 146 137 146 135 139 147 137 138 133 129 119 115 111 111 111 111 110 111 113 110 113 113 111 111 106 94 81 77 81 80 78 79
151 160 67 96 328 203 159 163 221 86 129 118 88 97 50 64 76 122 121 142 137 145 146 136 137 136 129 125 121 118 117 116 111 112 113 113 115 118 116 116 109 100 89 77 70 64 70 79 87
121 44 56 351 254 216 130 118 112 118 136 107 109 81 71 107 118 143 138 147 141 142 147 149 140 135 134 130 126 123 122 119 116 116 120 122 124 120 116 113 109 100 87 80 76 77 85 90 64
115 8 286 262 265 283 117 128 137 146 96 103 99 77 78 122 136 140 149 143 143 146 151 151 145 142 138 135 131 130 128 124 124 127 128 129 132 126 126 122 113 100 87 73 72 84 91 75 62
100 171 215 302 328 254 140 151 150 141 101 99 103 104 95 109 121 141 147 146 145 149 155 153 151 148 143 141 139 136 133 133 137 135 139 144 139 132 126 123 123 111 94 78 72 80 59 50 52
165 167 138 260 318 119 150 160 148 123 115 109 98 99 91 129 140 150 149 148 149 150 154 156 154 153 149 148 147 145 145 146 144 150 152 156 149 145 135 123 125 121 104 81 74 55 38 42 49
179 129 281 239 359 133 156 148 136 130 132 129 127 115 137 151 157 149 148 147 149 150 153 149 154 161 156 155 156 157 160 159 161 167 167 166 156 156 176 182 176 212 52 71 65 58 46 56 80
175 125 257 245 150 165 164 139 140 142 136 126 130 153 163 167 169 149 146 148 151 153 152 150 154 159 160 165 165 166 168 175 176 182 186 184 184 184 203 237 258 272 300 359 28 322 39 42 65
197 270 278 248 132 141 152 143 159 131 139 162 195 152 159 164 159 152 148 152 153 158 155 157 161 160 163 159 171 170 176 184 188 197 201 200 198 237 236 240 253 264 269 274 290 301 348 28 123
198 229 260 276 134 163 166 155 149 136 154 138 118 142 158 165 161 162 160 163 165 164 168 166 168 167 165 170 181 176 184 191 198 207 209 201 211 222 228 237 235 242 244 253 295 302 323 348 7
206 232 232 264 250 158 150 154 150 149 175 158 153 155 163 167 171 169 169 167 173 171 171 174 173 173 174 182 184 187 197 200 209 212 214 199 210 231 194 185 199 246 234 232 274 304 360 326 1
228 230 231 250 263 161 167 154 160 164 179 161 159 162 162 171 179 180 173 170 172 171 177 177 178 177 183 186 190 196 200 205 216 218 212 208 214 201 202 213 196 219 219 214 237 259 305 56 328
227 246 228 236 270 175 172 173 169 177 151 156 157 163 168 174 181 185 177 174 169 176 177 181 180 182 187 190 195 199 203 203 215 229 210 203 202 202 201 198 205 215 235 193 198 205 205 331 322
248 278 265 226 230 190 170 185 129 155 149 156 162 170 173 179 183 184 179 178 178 178 180 181 185 185 189 189 192 202 201 208 213 222 223 195 199 184 193 188 187 233 219 181 155 182 75 327 344
259 286 296 283 241 178 124 141 160 153 154 162 169 175 174 185 184 184 187 186 182 184 179 181 181 186 190 190 190 206 212 206 218 215 209 187 185 182 181 174 145 294 176 156 153 96 41 4 352
314 301 286 312 139 157 148 171 156 157 162 169 168 180 180 186 189 191 190 191 183 178 178 180 183 185 187 187 189 192 180 192 204 197 191 186 185 188 189 177 164 133 128 131 137 83 65 53 24
20 260 272 293 181 174 198 174 179 170 166 172 179 179 181 184 189 198 192 192 187 180 182 183 183 185 192 188 193 191 182 177 171 180 190 187 194 188 190 189 193 170 162 148 156 145 131 359 355
230 254 262 262 6 177 182 172 178 174 172 179 183 186 186 189 201 180 189 190 185 183 183 184 182 180 193 185 187 188 192 208 177 185 188 190 194 190 192 188 205 173 161 162 180 159 269 190 346
244 257 258 266 329 187 177 169 168 173 180 184 184 186 190 192 197 179 184 185 184 186 183 184 183 184 186 182 185 188 202 212 194 197 204 185 193 194 192 191 170 175 179 184 162 133 86 308 21
238 248 260 292 275 237 197 177 172 174 186 185 184 189 193 196 194 197 175 185 182 183 186 182 186 186 190 191 188 189 199 208 212 203 217 209 202 198 197 197 199 182 167 162 169 159 155 213 95
228 235 249 247 296 153 165 159 181 192 184 191 191 192 193 193 194 194 189 185 182 184 185 184 186 189 189 184 175 177 177 182 197 209 213 214 200 193 187 198 197 190 182 177 179 160 159 150 326
235 228 245 255 262 273 191 226 207 209 218 193 194 196 197 198 198 192 194 189 189 186 184 184 183 186 186 179 182 190 195 203 213 207 209 211 194 189 189 190 182 171 177 175 177 167 172 154 161
242 241 250 242 247 241 247 246 225 209 228 220 196 198 199 199 198 196 196 197 193 187 186 186 180 179 180 184 185 189 193 201 210 210 215 209 198 193 191 191 182 175 173 175 172 177 172 172 159
232 243 256 245 237 248 242 236 226 219 218 220 203 203 199 200 199 201 201 198 196 190 189 188 184 182 177 181 185 190 195 202 210 216 219 206 193 195 196 194 183 177 170 175 184 182 180 178 191
214 216 234 246 234 242 236 223 229 214 210 207 208 203 199 197 198 202 199 200 198 192 190 187 187 188 182 182 186 190 195 199 207 210 208 197 195 193 199 188 184 179 177 178 178 185 189 189 197
222 210 214 220 233 257 238 229 234 227 211 204 212 206 193 197 201 202 199 199 198 193 187 186 188 189 187 187 189 191 194 200 204 207 198 200 196 197 190 186 184 184 183 183 184 188 194 191 208
230 216 215 230 232 269 249 239 248 228 228 214 215 203 195 198 200 204 201 201 198 192 189 187 187 191 190 192 192 192 193 199 202 203 199 196 191 190 184 181 183 188 186 184 188 193 198 199 216
218 203 217 208 229 239 247 240 235 221 232 225 207 204 196 197 204 206 197 198 198 195 190 188 187 189 190 192 193 193 198 200 197 197 200 197 197 193 185 183 187 190 186 186 187 195 199 205 214
218 218 216 218 220 233 251 252 218 241 253 244 215 201 197 196 204 203 200 197 195 193 187 189 189 191 191 192 193 193 197 200 201 208 203 198 196 198 187 190 188 190 191 190 191 198 202 211 219
227 223 211 219 217 229 231 248 156 219 251 260 220 207 203 200 195 200 197 195 191 191 187 188 188 191 193 190 191 194 193 193 201 210 208 196 200 196 193 189 190 191 194 193 196 203 206 211 216